Location: Lawrence Hall of Science
(37.8785°N, 122.2415°W)
Time: 21:04:46
(UTC-07:00)

Daily predictions for brighter satellites

Satellite Brightness Start Highest point End
(mag) Time Altitude Azimuth Time Altitude Azimuth Time Altitude Azimuth
Meteor 1-10 Rocket 4.5 20:42:33 10° N 20:48:15 54° ENE 20:53:47 10° SSE
H-2A R/B 3.4 20:50:25 10° ESE 20:53:44 22° ENE 20:57:01 10° NNE
Envisat 4.1 20:50:09 10° SE 20:54:26 28° ENE 20:58:44 10° N
COSMOS 2487 4.5 20:52:37 10° NNE 20:54:54 16° ENE 20:57:10 10° ESE
Cosmos 1606 3.9 20:53:06 10° NNE 20:56:28 26° ENE 20:59:47 10° SE
Cosmos 2184 Rocket 4.0 20:53:33 10° S 20:59:42 85° E 21:05:55 10° N
Cosmos 1892 3.2 20:56:35 10° SSW 21:00:23 64° W 21:04:14 10° N
H-2A R/B 3.9 21:00:08 10° SW 21:03:49 37° SSE 21:19:23 10° ESE
ALOS 3.0 21:01:35 10° S 21:06:09 56° W 21:10:46 10° NNW
ERS-1 Rocket 3.1 21:03:48 10° SSE 21:08:43 57° ENE 21:13:40 10° N
SJ-11-01 4.4 21:06:27 10° SSE 21:11:08 62° ENE 21:15:49 10° N
NOSS 5 (C) 4.2 21:08:29 10° SSW 21:12:04 86° SE 21:15:12 10° NE
Cosmos 407 Rocket 3.5 21:08:07 10° NNW 21:13:25 74° ENE 21:18:44 10° SSE
H-2A R/B 3.7 21:10:05 10° S 21:13:38 45° W 21:17:14 10° NNW
USA 186 3.0 21:11:01 10° S 21:13:59 41° W 21:17:07 10° NNW
Meteor 1-27 Rocket 3.9 21:09:32 10° N 21:14:58 53° ENE 21:20:19 10° SSE
Cosmos 1782 2.8 21:12:51 10° N 21:16:54 87° E 21:20:56 10° S
Cosmos 1674 Rocket 3.6 21:17:24 10° N 21:21:52 83° W 21:26:16 10° S
Cosmos 1452 Rocket 3.5 21:18:50 10° SSW 21:24:05 81° ESE 21:29:23 10° NNE
H-2A R/B 4.3 21:24:31 10° ENE 21:25:26 10° ENE 21:26:20 10° NE
Okean 2 Rocket 3.8 21:22:31 13° SSE 21:25:53 33° E 21:29:51 10° NNE
ISS -2.4 21:25:18 10° WSW 21:28:29 50° NW 21:31:40 10° NE
Cosmos 1184 Rocket 3.2 21:26:18 14° SSE 21:28:53 42° E 21:32:05 10° NNE
Cosmos 1190 Rocket 4.4 21:24:02 10° NNW 21:29:10 62° WSW 21:34:17 10° S
Cosmos 1242 Rocket 3.9 21:27:55 10° NNE 21:30:59 24° ENE 21:32:16 20° ESE
YAOGAN 6 4.0 21:30:30 19° E 21:31:42 22° ENE 21:34:30 10° NNE
Cosmos 1939 Rocket 2.7 21:28:44 14° SSE 21:32:01 75° ENE 21:35:57 10° N
OAO 3 Rocket 3.8 21:28:31 10° SW 21:33:03 36° SSE 21:36:05 18° ESE
Cosmos 1408 2.5 21:29:50 10° S 21:33:26 62° E 21:37:03 10° NNE
ATLAS 5 CENTAUR R/B 3.6 21:27:53 10° NW 21:33:33 39° WSW 21:39:29 10° S
Cosmos 1782 Rocket 3.7 21:31:54 10° S 21:36:14 54° E 21:40:37 10° NNE
Sich 1 Rocket 4.1 21:33:12 10° SSW 21:37:44 63° W 21:42:17 10° N
Atlas Centaur 2 2.7 21:37:13 10° WSW 21:39:48 18° SSW 21:40:37 17° S
Cosmos 1238 Rocket 2.5 21:40:58 10° N 21:44:21 69° E 21:46:42 23° SSE
Cosmos 1825 2.1 21:41:06 10° S 21:44:55 88° W 21:48:45 10° N
SPOT 5 3.1 21:43:47 20° SSE 21:47:28 65° ENE 21:52:47 10° N
Nadezhda 3 Rocket 4.0 21:42:13 10° N 21:48:37 89° W 21:54:38 12° S
Cosmos 1975 Rocket 3.0 21:48:42 10° N 21:53:01 65° E 21:55:11 28° SSE
COS B Rocket 3.4 21:52:29 10° N 21:56:26 66° W 21:58:58 18° SSW
Cosmos 1833 Rocket 3.9 21:52:00 10° N 21:56:50 28° ENE 21:59:10 21° E
MetOp-A 4.1 21:54:30 24° SSE 21:57:43 69° ENE 22:03:03 10° N
Cosmos 1850 Rocket 4.3 21:52:57 10° N 21:58:10 52° ENE 22:00:34 30° SE
Cosmos 2278 Rocket 2.6 21:53:24 10° SSW 21:59:01 65° WNW 22:04:41 10° NNE
Cosmos 1174 4.4 21:58:06 10° NW 22:00:56 33° WSW 22:01:56 25° SSW
DNEPR-1 R/B 3.9 21:56:27 10° NNW 22:01:42 62° NE 22:03:31 35° ESE
UNK 4.4 21:55:40 10° NNE 22:01:49 66° ESE 22:06:49 14° S
Cosmos 1378 Rocket 4.0 21:59:15 10° NNW 22:03:29 57° W 22:06:34 18° SSW
Cosmos 1954 Rocket 4.2 21:58:48 10° NNW 22:03:58 67° WSW 22:07:20 22° S
GPS 2-05 Rocket1 2.9 22:09:54 10° W 22:13:34 61° S 22:13:40 61° S
Cosmos 2341 Rocket 4.4 22:07:45 10° SSW 22:13:59 63° W 22:20:13 10° N
USA 229 DEB 4.2 22:10:40 10° NNW 22:17:34 51° NE 22:20:58 30° ESE
USA 229 4.2 22:10:46 10° NNW 22:17:41 51° NE 22:21:04 30° ESE
Cosmos 1741 Rocket 3.9 22:14:00 10° NNW 22:19:15 79° ENE 22:21:05 41° SSE
USA 245 2.9 22:19:50 70° ESE 22:20:02 73° ENE 22:24:03 10° N
Cosmos 2082 Rocket 2.4 22:15:13 10° NNW 22:20:50 56° ENE 22:22:40 39° ESE
Meteor 1-14 Rocket 4.1 22:18:53 23° S 22:22:32 83° E 22:28:09 10° N
SL-8 Rocket 3.9 22:18:59 18° S 22:23:50 89° W 22:30:07 10° N
H-2A R/B 3.7 22:26:51 15° SSW 22:29:36 28° W 22:33:16 10° NW
Elektron 3 4.3 22:26:45 10° NW 22:29:48 74° SW 22:30:15 64° S
COSMOS 2487 4.2 22:27:26 10° NW 22:30:32 27° W 22:31:36 23° SW
Cosmos 1110 Rocket 4.1 22:31:05 49° ESE 22:31:34 50° ESE 22:36:36 10° NNE
Timation 2 Rocket 3.9 22:25:49 10° NNW 22:31:48 73° WSW 22:34:12 38° S
Cosmos 2151 Rocket 3.5 22:31:06 55° S 22:32:04 82° E 22:36:38 10° N
Cosmos 2297 4.1 22:29:49 10° SSW 22:35:28 65° WNW 22:41:11 10° NNE
CZ-4 R/B 3.6 22:36:15 10° NNE 22:40:56 87° E 22:41:53 57° S
NOAA 11 4.2 22:39:28 45° S 22:41:14 84° WSW 22:46:46 10° NNW
OAO 1 Rocket 4.3 22:39:22 10° WSW 22:44:36 63° S 22:44:50 63° SSE
Cosmos 614 Rocket 4.1 22:40:20 10° NNW 22:45:22 64° WSW 22:46:32 48° SSW
Cosmos 1300 Rocket 4.3 22:47:41 40° ENE 22:47:41 40° ENE 22:51:03 10° NNE
Okean 1 Rocket 4.0 22:53:00 37° NE 22:53:00 37° NE 22:56:11 10° NNE
CZ-4C R/B 3.6 22:53:00 61° NNE 22:53:00 61° NNE 22:56:33 10° N
BREEZE-M TANK 4.4 22:43:03 10° WNW 22:53:54 42° N 22:56:11 21° NE
Landsat 7 3.6 22:58:19 83° S 22:58:30 90° W 23:03:18 10° NNW
Gbstr 26 Del rocket 4.4 22:55:50 10° NW 23:00:14 31° NNE 23:01:03 29° NE
H-2A R/B 2.0 23:03:30 74° SE 23:04:01 84° ENE 23:09:21 10° NNW
Cosmos 2366 rocket 4.5 23:01:37 27° SSW 23:05:01 58° W 23:11:16 10° N
ISS 0.1 23:04:18 10° NW 23:05:31 12° NNW 23:06:46 10° N
SL-08 RB Rocket 4.3 23:05:44 48° WSW 23:06:08 49° W 23:10:39 10° NNW
Cosmos 2369 Rocket 3.7 23:08:35 22° ENE 23:08:35 22° ENE 23:11:07 10° NE
Okean 1-7 Rocket 4.4 23:02:53 10° N 23:06:19 43° NE 23:06:19 43° NE
ARGOS 4.0 23:09:33 36° SW 23:10:52 42° W 23:15:58 10° NNW
Terra 1.8 23:14:34 78° NNW 23:14:34 78° NNW 23:19:00 10° NNW
USA 234 3.1 23:08:40 10° NE 23:15:13 73° SE 23:17:24 44° SSW
Cosmos 1302 Rocket 4.2 23:27:10 67° NNE 23:27:10 67° NNE 23:31:45 10° NNE
CARTOSAT-1 4.5 23:30:00 46° WNW 23:30:00 46° WNW 23:33:22 10° NNW
Spot 4 4.1 23:29:47 67° NNW 23:29:47 67° NNW 23:34:01 10° NNW
Cosmos 1943 Rocket 4.3 23:41:11 14° ENE 23:41:11 14° ENE 23:42:18 10° NE
Cosmos 1833 Rocket 3.6 23:35:39 10° NW 23:40:47 38° WSW 23:40:52 37° WSW
Lacrosse 5 2.5 23:43:14 52° N 23:43:14 52° N 23:47:16 10° NE
Cosmos 1000 Rocket 4.3 23:35:56 10° N 23:42:12 88° W 23:42:21 86° SSW
Cosmos 2239 Rocket 4.4 23:45:30 86° SW 23:45:38 88° W 23:51:59 10° N
